Location: N?r?yanapuram
(17.1891°N, 80.5810°E)
Time: 15:46:18
(UTC+00:00)

Daily predictions for brighter satellites

Satellite Brightness Start Highest point End
(mag) Time Altitude Azimuth Time Altitude Azimuth Time Altitude Azimuth
Cosmos 2242 Rocket 3.5 13:09:53 10° N 13:14:17 77° E 13:18:43 10° S
Helios 1A 4.5 13:10:46 10° N 13:14:35 41° WNW 13:18:24 10° SSW
Cosmos 1331 Rocket 4.1 13:09:28 10° SSW 13:14:37 88° W 13:19:51 10° NNE
Cosmos 1346 Rocket 4.4 13:13:31 10° SE 13:15:33 14° E 13:17:36 10° ENE
Cosmos 1818 3.6 13:11:03 10° NNW 13:16:26 64° ENE 13:21:47 10° SSE
Cosmos 2369 Rocket 2.2 13:11:08 10° S 13:16:46 66° ESE 13:22:23 10° NNE
Cosmos 1908 Rocket 4.3 13:15:36 10° SSE 13:19:20 29° E 13:23:03 10° NNE
ATLAS 3B R/B 3.8 13:15:34 10° SSE 13:20:08 20° ESE 13:24:53 10° ENE
Cosmos 1300 2.9 13:18:31 10° SSW 13:22:04 68° W 13:25:37 10° N
Atlas Centaur 2 2.5 13:17:03 10° SW 13:22:23 38° SSE 13:26:41 10° E
Cosmos 2263 4.3 13:19:04 10° S 13:24:32 52° ESE 13:29:59 10° NNE
ADEOS 4.0 13:20:33 10° SE 13:25:25 42° ENE 13:30:19 10° N
BREEZE-M DEB (TANK) 2.1 13:23:23 10° NNW 13:25:43 38° NE 13:28:24 11° ESE
Cosmos 1703 3.5 13:26:22 10° NNE 13:29:56 42° E 13:33:29 10° SSE
GRACE-FO 1 4.5 13:29:50 10° N 13:33:28 70° E 13:37:04 10° S
GRACE-FO 2 4.5 13:30:16 10° N 13:33:53 72° E 13:37:29 10° S
CZ-4 R/B 3.0 13:32:20 13° ESE 13:33:59 17° ENE 13:36:33 10° NE
CZ-4B R/B 3.5 13:33:46 10° SSE 13:38:51 85° WSW 13:43:48 10° NNW
IGS 5A 4.3 13:35:41 10° S 13:39:39 52° W 13:43:37 10° NNW
Cosmos 724 4.4 13:36:22 10° N 13:42:00 54° ENE 13:47:33 11° SE
Delta 7925 Rocket 4.0 13:40:17 10° WNW 13:45:32 60° NNE 13:50:17 19° E
CZ-4B R/B 3.0 13:44:16 10° SSE 13:48:05 47° ENE 13:51:44 10° N
Cosmos 1892 4.4 13:47:27 10° NE 13:48:41 15° ENE 13:48:41 15° ENE
Cosmos 1953 2.1 13:46:47 10° S 13:50:34 67° E 13:54:20 10° N
Cosmos 2082 Rocket 2.1 13:45:03 10° NNW 13:50:45 83° ENE 13:56:25 10° SSE
Cosmos 1455 2.4 13:47:38 10° SSE 13:50:58 39° E 13:54:18 10° NNE
Cosmos 1408 3.1 13:49:21 10° NNW 13:52:19 48° W 13:55:16 10° S
TSX-5 4.2 13:54:33 10° S 13:58:54 71° ESE 14:04:28 10° NNE
Meteor 2-5 Rocket 4.2 13:53:16 10° NNW 13:59:07 66° W 14:04:59 10° S
Cosmos 2154 Rocket 4.2 13:56:20 10° N 14:02:29 71° W 14:08:38 10° S
DELTA 2 DEB (DPAF) 3.8 13:58:57 10° NNE 14:03:09 77° ESE 14:07:22 10° S
Cosmos 2327 Rocket 4.4 13:57:04 10° N 14:03:11 64° E 14:09:11 10° SSE
Tiangong -2.0 14:02:22 10° SW 14:05:06 50° SSE 14:05:06 50° SSE
Cosmos 1242 Rocket 2.7 14:02:56 10° NNW 14:05:51 53° W 14:08:11 14° S
GPS 2-14 Rocket1 2.8 14:03:48 10° WNW 14:07:04 47° N 14:07:46 40° NE
ATLAS 2A CENTAUR R/B 3.9 14:05:51 10° WNW 14:10:17 84° NNE 14:18:27 26° ESE
GPS 2-17 Rocket1 2.8 14:06:13 10° WNW 14:10:34 81° N 14:11:46 46° E
SL-8 R/B 4.4 14:10:45 10° NW 14:15:19 48° SW 14:17:46 25° SSE
Resurs 1-3 3.4 14:14:17 27° SSE 14:16:36 81° E 14:20:57 10° N
PAYLOAD B 4.1 14:12:55 21° SSE 14:16:37 68° ENE 14:22:06 10° N
Cosmos 1674 Rocket 3.7 14:12:24 10° N 14:16:50 75° W 14:20:48 13° S
CZ-3C R/B 4.4 14:13:39 10° WSW 14:17:28 12° SW 14:19:50 10° SSW
BREEZE-M DEB (TANK) 4.2 14:17:59 10° NW 14:22:25 76° NE 14:27:45 28° SE
IUS-12 SRM-1 3.7 14:18:35 10° W 14:22:37 44° NNW 14:23:27 35° NNE
ADEOS Rocket 4.2 14:17:45 10° SSW 14:23:10 38° WSW 14:28:17 10° NW
NOSS 3-1 (A) 2.6 14:20:27 10° SSW 14:25:01 65° ESE 14:26:19 44° NE
Okean O Rocket 3.4 14:27:59 19° NNE 14:27:59 19° NNE 14:29:33 10° NNE
Feng Yun 1-1 Rocket 4.3 14:29:40 51° E 14:29:53 51° ENE 14:35:10 10° N
Resurs 01 Rocket 3.2 14:32:37 23° NNE 14:32:37 23° NNE 14:34:32 10° N
OAO 1 4.5 14:26:17 10° NW 14:31:43 65° NNE 14:32:27 58° ENE
ATLAS 5 CENTAUR R/B 2.7 14:29:40 10° SW 14:32:48 32° WNW 14:35:51 10° N
Milstar 3 4.3 14:25:06 10° W 14:33:58 63° NNW 14:49:55 13° ENE
Cosmos 2181 Rocket 4.1 14:29:15 10° S 14:35:20 75° W 14:41:29 10° N
BlueWalker 3 4.3 14:32:21 10° SSW 14:32:54 14° SSW 14:32:54 14° SSW
Hubble Space Telescope 3.0 14:34:27 10° NW 14:36:57 16° N 14:37:31 15° N
Cosmos 1025 Rocket 4.2 14:34:58 10° N 14:37:27 32° NNE 14:37:27 32° NNE
Cosmos 1825 4.1 14:37:14 10° N 14:38:19 19° N 14:38:19 19° N
CSL-04 Debris 4.2 14:42:42 61° NE 14:42:42 61° NE 14:47:34 10° N
H-2A ROCKET BODY 4.1 14:35:29 10° WNW 14:42:17 71° NNE 14:53:10 36° E
USA 234 4.0 14:44:15 34° NE 14:44:23 34° NE 14:50:08 10° NNW
MOS 1-B 4.2 14:47:11 75° ESE 14:47:30 78° ENE 14:53:18 10° N
Cosmos 1741 Rocket 4.1 14:42:18 10° NNW 14:47:32 74° WSW 14:48:04 67° SSW
DELTA 4 R/B 3.6 14:42:45 10° SW 14:51:04 50° SSE 14:51:04 50° SSE
Palapa 6 Rocket 4.1 14:48:44 10° WNW 14:51:25 37° NW 14:51:25 37° NW
CSL-04 Rocket 3.9 14:53:44 62° NNE 14:53:44 62° NNE 14:58:22 10° N
Cosmos 968 Rocket 4.0 14:48:27 10° N 14:52:11 49° N 14:52:11 49° N
SL-8 Rocket 4.0 14:51:21 10° N 14:57:29 73° W 14:58:56 53° SSW
CZ-4 R/B 3.8 15:07:58 19° WSW 15:08:23 19° W 15:11:14 10° NW
ATLAS 3B R/B 3.6 15:03:56 10° SW 15:10:17 46° WNW 15:17:06 10° N
Atlas Centaur 2 3.3 15:06:13 10° W 15:09:08 30° WNW 15:09:08 30° WNW
CZ-4B R/B 4.1 15:10:45 42° SW 15:11:40 45° W 15:17:02 10° NNW
USA 281 4.0 15:18:22 40° N 15:18:22 40° N 15:22:32 10° N
VEP-3 3.7 15:03:36 10° W 15:32:30 65° N 15:33:33 61° NE
CZ-3 R/B 4.3 21:05:54 60° SSW 21:11:44 69° SSE 21:24:37 10° ENE
ATLAS 2AS CENTAUR R/B 3.4 21:35:06 53° NE 21:35:06 53° NE 21:40:35 10° NNE
Tiangong 1.4 22:15:49 11° NE 22:15:49 11° NE 22:16:15 10° ENE
H-2A R/B 3.8 22:12:05 10° NE 22:16:28 29° E 22:20:56 10° SSE
Cosmos 1975 4.4 22:18:43 10° NNE 22:21:37 33° ENE 22:21:37 33° ENE
Cosmos 1867 4.0 22:20:27 10° NNW 22:25:50 60° ENE 22:31:09 10° SE
Atlas Centaur 2 2.8 22:28:03 33° SE 22:28:03 33° SE 22:31:04 10° SE
Cosmos 1340 4.4 22:27:54 10° NNE 22:30:54 28° E 22:31:50 24° ESE
Cosmos 1666 Rocket 4.2 22:26:36 10° N 22:30:56 54° E 22:33:04 27° SSE
Cosmos 1484 Rocket 3.7 22:31:35 10° NNE 22:34:43 42° E 22:34:43 42° E
Cosmos 1048 Rocket 4.0 22:38:15 50° S 22:39:43 85° ESE 22:45:02 10° NNE
FUSE 3.9 22:41:40 60° WNW 22:42:20 67° NNW 22:47:39 10° ENE
Centaur D-1AR AC-38 4.4 22:42:54 40° SSW 22:43:29 42° S 22:55:04 10° ESE
CRYOSAT 2 4.5 22:39:25 10° N 22:44:16 73° E 22:47:58 17° S
Palapa B4 Rocket 4.0 22:43:03 38° WNW 22:46:13 84° N 22:51:33 10° E
Cosmos 2278 Rocket 2.0 22:42:57 10° NNW 22:48:36 77° WSW 22:54:14 10° S
Cosmos 1842 3.8 22:47:22 31° SSE 22:48:49 53° E 22:52:26 10° NNE
Cosmos 1553 Rocket 3.9 22:43:41 10° N 22:49:54 89° W 22:56:00 10° S
ARIANE 5 R/B 4.2 22:49:07 22° S 22:51:04 26° SSE 23:04:53 10° ESE
SL-16 R/B 2.9 22:51:53 35° WNW 22:51:53 35° WNW 22:56:40 10° N
H-2A R/B 4.1 22:49:35 10° NE 22:52:36 32° E 22:55:22 11° SSE
Aurora 2 Rocket 4.2 22:57:11 25° SSW 23:00:33 40° SSE 23:05:30 10° E
ARIANE 5 R/B 3.7 23:00:29 10° NNE 23:05:24 42° E 23:10:17 10° S
Cosmos 1420 Rocket 4.1 23:01:14 10° N 23:06:30 77° ENE 23:11:46 10° SSE
ARGOS 4.4 23:01:46 10° NNE 23:06:45 40° E 23:11:43 10° S
Cosmos 1633 Rocket 3.0 23:05:04 10° NNW 23:09:18 54° W 23:13:33 10° S
Cosmos 2056 Rocket 3.9 23:04:37 10° N 23:10:00 68° ENE 23:15:21 10° SSE
Cosmos 1707 2.5 23:07:33 12° S 23:10:53 82° E 23:14:32 10° N
ATLAS 5 CENTAUR R/B 1.7 23:11:02 18° W 23:17:43 68° N 23:20:58 10° E
Cosmos 1624 Rocket 3.9 23:17:12 10° NNW 23:22:24 89° WSW 23:27:34 10° SSE
ATLAS 2AS CENTAUR R/B 4.4 23:22:34 14° WNW 23:24:26 15° WNW 23:28:21 10° NNW
In-Cosmos 22 4.2 23:22:46 10° S 23:28:04 78° E 23:33:28 10° N
Chandra Rocket (1) 4.1 23:26:49 10° NW 23:30:01 25° NNE 23:37:13 10° ENE
Cosmos 1461 3.1 23:34:14 10° NW 23:37:46 39° WSW 23:41:21 10° S
DELTA 4 R/B 1.6 23:40:47 17° SSW 23:40:50 17° SSW 23:42:05 10° SSE
Meteor 1-23 Rocket 4.5 23:37:36 10° S 23:43:19 78° E 23:48:59 10° N
Cosmos 1674 4.1 23:42:27 15° WSW 23:43:21 16° W 23:45:33 10° NW
Meteor 1-13 Rocket 4.4 23:40:45 10° SSW 23:46:07 49° W 23:51:36 10° N
SL-08 RB Rocket 3.8 23:44:00 10° NNE 23:48:37 89° ESE 23:53:11 10° SSW
Cosmos 1939 Rocket 4.0 23:46:01 10° NNW 23:48:57 22° WNW 23:51:55 10° SW
ATLAS 2A CENTAUR R/B 1.6 23:47:35 11° SW 23:49:21 36° SSE 23:51:48 10° E
IRS-1C 4.3 23:44:12 10° N 23:49:22 54° WNW 23:54:31 10° SSW
Cosmos 1943 Rocket 2.7 23:44:31 10° NW 23:49:36 35° WSW 23:54:42 10° SSW
GPS 2-12 Rocket1 3.2 23:45:55 12° W 23:50:15 72° N 23:54:57 10° ENE
Cosmos 1371 Rocket 4.5 23:46:12 10° NNW 23:51:04 39° W 23:55:58 10° SSW
Tiangong -1.7 23:48:27 10° WNW 23:51:24 40° SW 23:54:23 10° SSE
Cosmos 1869 Rocket 4.1 23:48:49 10° N 23:53:06 64° E 23:57:20 10° SSE
Cosmos 1766 4.2 23:51:56 10° NW 23:54:57 24° W 23:58:00 10° SSW
H-2A R/B 3.4 23:52:00 10° NNW 23:55:33 19° WNW 23:59:10 10° WSW
